• In Netherlands
  • List of Countries
  • For 7 days
  • Water Temperature
  • Satellite Maps
  • Weather Map
  • Weather Widgets
  • user-avatar
    Login

    Hourly Weather Asadabad

    Today, 23 March, Thursday

    Time Temperature Precipitation Wind Pressure Humidity
    00:00 +11°C° 0.1 mm 1 mps 657 mmHg 89%
    01:00 +11°C° 0.1 mm 1 mps 657 mmHg 89%
    02:00 +11°C° 0.1 mm 1 mps 656 mmHg 89%
    03:00 +10°C° 0 mm 1 mps 656 mmHg 88%
    04:00 +10°C° 0 mm 1 mps 657 mmHg 87%
    05:00 +10°C° 0 mm 1 mps 657 mmHg 86%
    06:00 +11°C° 0 mm 1 mps 657 mmHg 80%
    07:00 +12°C° 0 mm 1 mps 658 mmHg 74%
    08:00 +14°C° 0 mm 2 mps 659 mmHg 68%
    09:00 +15°C° 0 mm 2 mps 659 mmHg 61%
    10:00 +16°C° 0 mm 2 mps 659 mmHg 55%
    11:00 +19°C° 0 mm 1 mps 660 mmHg 48%
    12:00 +20°C° 0.1 mm 1 mps 660 mmHg 46%
    13:00 +19°C° 0.1 mm 2 mps 660 mmHg 43%
    14:00 +20°C° 0.1 mm 2 mps 659 mmHg 41%
    15:00 +21°C° 0 mm 1 mps 659 mmHg 40%
    16:00 +20°C° 0 mm 1 mps 659 mmHg 40%
    17:00 +20°C° 0 mm 1 mps 659 mmHg 40%
    18:00 +18°C° 0 mm 1 mps 659 mmHg 44%
    19:00 +16°C° 0 mm 1 mps 658 mmHg 49%
    20:00 +14°C° 0 mm 1 mps 658 mmHg 53%
    21:00 +14°C° 0 mm 2 mps 658 mmHg 52%
    22:00 +13°C° 0 mm 2 mps 659 mmHg 50%
    23:00 +13°C° 0 mm 2 mps 659 mmHg 49%

    Tomorrow, 24 March, Friday

    Time Temperature Precipitation Wind Pressure Humidity
    00:00 +13°C° 0 mm 2 mps 658 mmHg 48%
    01:00 +12°C° 0 mm 2 mps 658 mmHg 47%
    02:00 +12°C° 0 mm 2 mps 658 mmHg 47%
    03:00 +12°C° 0 mm 2 mps 658 mmHg 46%
    04:00 +10°C° 0 mm 2 mps 658 mmHg 45%
    05:00 +10°C° 0 mm 3 mps 657 mmHg 44%
    06:00 +13°C° 0 mm 2 mps 658 mmHg 41%
    07:00 +14°C° 0 mm 2 mps 659 mmHg 38%
    08:00 +16°C° 0 mm 2 mps 660 mmHg 35%
    09:00 +17°C° 0 mm 2 mps 660 mmHg 32%
    10:00 +19°C° 0 mm 2 mps 660 mmHg 28%
    11:00 +21°C° 0 mm 2 mps 660 mmHg 24%
    12:00 +21°C° 0 mm 2 mps 660 mmHg 24%
    13:00 +23°C° 0 mm 1 mps 660 mmHg 24%
    14:00 +23°C° 0 mm 1 mps 660 mmHg 24%
    15:00 +23°C° 0 mm 1 mps 660 mmHg 25%
    16:00 +23°C° 0 mm 1 mps 659 mmHg 26%
    17:00 +23°C° 0 mm 1 mps 659 mmHg 27%
    18:00 +21°C° 0 mm 1 mps 659 mmHg 30%
    19:00 +19°C° 0 mm 1 mps 659 mmHg 34%
    20:00 +16°C° 0 mm 1 mps 659 mmHg 38%
    21:00 +16°C° 0 mm 1 mps 659 mmHg 37%
    22:00 +16°C° 0 mm 2 mps 659 mmHg 36%
    23:00 +15°C° 0 mm 2 mps 659 mmHg 35%

    Day after tomorrow, 25 March, Saturday

    Time Temperature Precipitation Wind Pressure Humidity
    00:00 +15°C° 0 mm 2 mps 659 mmHg 35%
    01:00 +15°C° 0 mm 2 mps 659 mmHg 35%
    02:00 +15°C° 0 mm 2 mps 658 mmHg 35%
    03:00 +15°C° 0 mm 2 mps 658 mmHg 35%
    04:00 +15°C° 0 mm 2 mps 658 mmHg 36%
    05:00 +15°C° 0 mm 2 mps 658 mmHg 36%
    06:00 +15°C° 0 mm 2 mps 658 mmHg 37%
    07:00 +16°C° 0 mm 2 mps 659 mmHg 38%
    08:00 +16°C° 0 mm 2 mps 659 mmHg 39%
    09:00 +18°C° 0.1 mm 2 mps 659 mmHg 37%
    10:00 +19°C° 0.1 mm 2 mps 660 mmHg 34%
    11:00 +20°C° 0.1 mm 2 mps 660 mmHg 32%
    12:00 +21°C° 0 mm 2 mps 660 mmHg 31%
    13:00 +23°C° 0 mm 2 mps 660 mmHg 30%
    14:00 +23°C° 0 mm 1 mps 659 mmHg 29%
    15:00 +23°C° 0 mm 1 mps 659 mmHg 30%
    16:00 +23°C° 0 mm 1 mps 659 mmHg 30%
    17:00 +23°C° 0 mm 1 mps 659 mmHg 31%
    18:00 +21°C° 0 mm 1 mps 659 mmHg 36%
    19:00 +19°C° 0 mm 1 mps 659 mmHg 41%
    20:00 +16°C° 0 mm 1 mps 658 mmHg 46%
    21:00 +16°C° 0 mm 1 mps 659 mmHg 46%
    22:00 +16°C° 0 mm 1 mps 659 mmHg 46%
    23:00 +15°C° 0 mm 2 mps 659 mmHg 47%

    26 March, Sunday

    Time Temperature Precipitation Wind Pressure Humidity
    00:00 +15°C° 0 mm 2 mps 659 mmHg 47%
    01:00 +14°C° 0 mm 2 mps 659 mmHg 47%
    02:00 +14°C° 0 mm 2 mps 658 mmHg 48%
    03:00 +14°C° 0 mm 2 mps 658 mmHg 47%
    04:00 +13°C° 0 mm 2 mps 658 mmHg 47%
    05:00 +13°C° 0 mm 2 mps 658 mmHg 47%
    06:00 +15°C° 0 mm 2 mps 658 mmHg 43%
    07:00 +17°C° 0 mm 2 mps 659 mmHg 40%
    08:00 +18°C° 0 mm 2 mps 660 mmHg 36%
    09:00 +21°C° 0 mm 1 mps 660 mmHg 34%
    10:00 +22°C° 0 mm 1 mps 661 mmHg 31%
    11:00 +24°C° 0 mm 1 mps 661 mmHg 28%
    12:00 +24°C° 0 mm 1 mps 661 mmHg 28%
    13:00 +25°C° 0 mm 1 mps 660 mmHg 29%
    14:00 +25°C° 0 mm 1 mps 660 mmHg 29%
    15:00 +25°C° 0.1 mm 1 mps 660 mmHg 30%
    16:00 +24°C° 0.1 mm 1 mps 660 mmHg 32%
    17:00 +24°C° 0.1 mm 1 mps 659 mmHg 33%
    18:00 +22°C° 0 mm 1 mps 659 mmHg 37%
    19:00 +21°C° 0 mm 1 mps 659 mmHg 42%
    20:00 +19°C° 0 mm 1 mps 659 mmHg 46%
    21:00 +18°C° 0 mm 2 mps 659 mmHg 47%
    22:00 +17°C° 0 mm 2 mps 659 mmHg 47%
    23:00 +17°C° 0 mm 2 mps 659 mmHg 48%

    27 March, Monday

    Time Temperature Precipitation Wind Pressure Humidity
    00:00 +17°C° 0.1 mm 2 mps 659 mmHg 49%
    01:00 +16°C° 0.1 mm 2 mps 659 mmHg 50%
    02:00 +16°C° 0.1 mm 2 mps 658 mmHg 51%
    03:00 +16°C° 0 mm 2 mps 658 mmHg 51%
    04:00 +16°C° 0 mm 2 mps 658 mmHg 52%
    05:00 +15°C° 0 mm 2 mps 658 mmHg 53%
    06:00 +17°C° 0 mm 2 mps 659 mmHg 50%
    07:00 +18°C° 0 mm 2 mps 659 mmHg 48%
    08:00 +19°C° 0 mm 2 mps 660 mmHg 45%
    09:00 +20°C° 0 mm 2 mps 660 mmHg 41%
    10:00 +23°C° 0 mm 2 mps 661 mmHg 38%
    11:00 +24°C° 0 mm 1 mps 661 mmHg 34%
    12:00 +25°C° 0 mm 1 mps 661 mmHg 33%
    13:00 +25°C° 0 mm 1 mps 660 mmHg 32%
    14:00 +26°C° 0 mm 1 mps 660 mmHg 31%
    15:00 +26°C° 0 mm 2 mps 660 mmHg 32%
    16:00 +25°C° 0 mm 2 mps 659 mmHg 32%
    17:00 +25°C° 0 mm 2 mps 659 mmHg 33%
    18:00 +23°C° 0.1 mm 1 mps 659 mmHg 38%
    19:00 +22°C° 0.1 mm 1 mps 659 mmHg 44%
    20:00 +20°C° 0.1 mm 1 mps 659 mmHg 49%
    21:00 +20°C° 0.1 mm 1 mps 659 mmHg 49%
    22:00 +18°C° 0.1 mm 2 mps 659 mmHg 49%
    23:00 +18°C° 0.1 mm 2 mps 659 mmHg 49%

    28 March, Tuesday

    Time Temperature Precipitation Wind Pressure Humidity
    00:00 +18°C° 0.1 mm 2 mps 659 mmHg 51%
    01:00 +18°C° 0.1 mm 2 mps 659 mmHg 52%
    02:00 +17°C° 0.1 mm 3 mps 659 mmHg 53%
    03:00 +17°C° 0.1 mm 3 mps 658 mmHg 54%
    04:00 +17°C° 0.1 mm 2 mps 658 mmHg 55%
    05:00 +17°C° 0.1 mm 2 mps 658 mmHg 56%
    06:00 +18°C° 0.1 mm 2 mps 658 mmHg 53%
    07:00 +19°C° 0.1 mm 2 mps 659 mmHg 51%
    08:00 +20°C° 0.1 mm 2 mps 659 mmHg 48%
    09:00 +21°C° 0.1 mm 2 mps 660 mmHg 44%
    10:00 +23°C° 0.1 mm 2 mps 660 mmHg 40%
    11:00 +25°C° 0.1 mm 1 mps 660 mmHg 36%
    12:00 +25°C° 0.1 mm 2 mps 660 mmHg 35%
    13:00 +26°C° 0.1 mm 2 mps 659 mmHg 35%
    14:00 +26°C° 0.1 mm 3 mps 659 mmHg 34%
    15:00 +25°C° 0.3 mm 2 mps 659 mmHg 36%
    16:00 +25°C° 0.3 mm 2 mps 658 mmHg 38%
    17:00 +24°C° 0.3 mm 2 mps 658 mmHg 40%
    18:00 +23°C° 0.3 mm 2 mps 658 mmHg 44%
    19:00 +21°C° 0.3 mm 3 mps 658 mmHg 48%
    20:00 +19°C° 0.3 mm 3 mps 658 mmHg 53%
    21:00 +19°C° 0.3 mm 3 mps 658 mmHg 54%
    22:00 +19°C° 0.3 mm 3 mps 658 mmHg 55%
    23:00 +19°C° 0.3 mm 3 mps 658 mmHg 57%
    Show more